Location: ???????
(55.4362°N, 38.1183°E)
Time: 21:19:40
(UTC+00:00)

SL-4 R/B - Pass Details

Date: 03 November 2021
Orbit: 427 x 661 km, 51.6° (Epoch: 27 November)

Event Time Altitude Azimuth Distance (km) Brightness Sun altitude
Rises 17:08:30 0° 221° (SW) 2,949 6.1 -29.0°
Reaches altitude 10° 17:11:02 10° 211° (SSW) 2,059 5.1 -29.4°
Enters shadow 17:11:15 11° 209° (SSW) 1,984 5.0 -29.4°
